Temperature
15 15 16 16 17 18 18 18 18 17 16 15 14 14 13 13 13 13 13 12 12 12 12 12 12 12 11 11 10 9 9 9 9 9 10 10 12 12 13 12 12 13 12
13 14 15 16 17 17 18 18 17 16 16 15 14 14 13 13 12 12 12 12 12 12 12 11 11 11 10 10 9 8 8 8 8 8 9 10 11 12 11 11 12 12 12
13 13 15 16 16 17 17 17 16 16 15 14 14 13 13 12 12 12 12 11 11 11 11 11 10 10 10 9 8 7 6 6 7 7 7 8 9 9 9 10 11 11 11
12 12 14 14 15 15 15 15 15 14 14 13 13 13 12 12 12 11 11 11 11 11 10 10 9 9 8 8 7 7 6 5 5 6 6 6 7 7 8 9 9 9 9
12 11 13 14 14 14 14 14 14 13 13 13 13 12 12 11 11 11 11 10 10 10 9 9 8 8 7 7 6 6 5 4 4 4 4 5 5 6 6 6 7 7 8
11 11 14 14 14 14 14 13 13 13 12 12 12 12 11 11 11 10 10 10 9 9 8 8 8 7 6 6 6 5 5 4 4 3 3 4 4 4 4 5 5 5 6
11 11 12 13 13 13 13 12 12 13 12 12 12 11 11 11 10 10 10 9 9 8 8 7 7 6 6 5 5 5 4 3 3 2 2 2 2 3 3 3 4 4 4
12 11 12 12 12 12 12 12 12 12 12 12 11 11 10 10 9 9 9 8 7 7 6 6 5 5 5 4 4 3 2 2 1 1 1 1 1 1 2 2 2 2 2
11 11 11 11 11 11 11 11 11 11 11 11 10 10 9 9 8 8 8 7 6 6 5 5 5 4 4 3 3 2 2 1 0 0 0 0 0 0 0 0 0 1 1
11 10 10 10 11 11 11 10 10 10 10 10 9 9 8 8 7 7 7 6 5 5 4 4 4 3 3 2 2 1 0 -0 -1 -1 -1 -1 -1 -1 -1 -1 -1 -1 -1
11 10 10 10 10 10 10 10 9 9 9 9 8 8 7 7 6 6 5 5 4 4 3 3 3 2 2 1 1 0 -0 -1 -1 -2 -1 -1 -2 -2 -2 -2 -2 -2 -2
11 10 9 10 10 10 9 9 9 8 8 8 7 7 6 6 5 5 5 4 3 3 2 2 2 1 1 1 0 -1 -2 -2 -2 -2 -2 -2 -2 -3 -3 -3 -3 -3 -3
11 10 9 9 9 9 9 8 8 8 7 7 6 6 5 5 5 4 3 3 2 2 1 1 1 1 1 0 -1 -2 -2 -3 -3 -3 -3 -3 -4 -4 -4 -4 -4 -4 -4
10 9 8 8 8 8 8 7 7 7 7 6 6 5 5 4 3 3 2 2 1 1 1 1 1 0 -0 -1 -2 -2 -3 -3 -4 -4 -4 -4 -5 -5 -5 -5 -5 -5 -5
10 9 8 7 7 7 7 7 6 6 6 5 5 4 4 3 3 2 1 1 1 1 1 0 -0 -1 -1 -2 -2 -3 -4 -4 -5 -5 -5 -5 -6 -6 -6 -6 -6 -6 -6
9 9 8 7 7 7 6 6 6 5 5 4 4 3 3 2 2 1 1 0 0 0 -0 -1 -1 -2 -2 -3 -3 -4 -5 -6 -6 -5 -6 -6 -6 -6 -6 -6 -6 -6 -6
10 9 8 7 7 6 6 5 5 4 4 3 3 2 2 1 1 0 -0 -0 -0 -0 -1 -1 -2 -3 -4 -4 -4 -6 -6 -6 -6 -6 -6 -6 -6 -6 -7 -6 -6 -6 -7
10 9 8 7 6 6 5 4 4 3 3 3 2 1 1 0 -0 -0 -1 -0 -1 -1 -2 -3 -4 -5 -5 -6 -7 -7 -7 -7 -6 -6 -6 -6 -6 -7 -6 -6 -7 -7 -7
9 9 8 7 6 5 4 3 3 3 2 2 1 0 -0 -0 -1 -1 -1 -1 -1 -2 -3 -4 -5 -6 -6 -7 -8 -8 -7 -7 -6 -6 -6 -7 -7 -7 -7 -7 -7 -8 -8
8 8 7 5 4 4 3 2 2 2 1 1 0 -0 -1 -1 -1 -1 -1 -2 -3 -4 -4 -5 -6 -7 -7 -8 -8 -8 -7 -7 -7 -7 -7 -7 -7 -7 -7 -8 -8 -8 -9
7 6 5 4 3 3 2 2 1 1 1 0 -0 -1 -1 -1 -1 -2 -2 -3 -4 -5 -5 -6 -7 -7 -8 -8 -8 -8 -8 -8 -8 -8 -7 -7 -7 -8 -8 -8 -8 -9 -9
6 5 4 3 3 2 1 1 0 0 -0 -0 -1 -1 -2 -2 -2 -3 -3 -4 -5 -6 -6 -7 -7 -8 -8 -8 -8 -8 -8 -8 -8 -8 -8 -8 -8 -9 -9 -9 -9 -9 -10
5 4 3 2 1 1 1 -0 -0 -1 -1 -1 -1 -2 -2 -3 -3 -4 -4 -5 -6 -7 -7 -8 -8 -8 -8 -8 -8 -8 -8 -8 -8 -8 -8 -8 -9 -10 -10 -10 -10 -10 -11
4 3 2 1 1 0 -0 -1 -1 -1 -1 -1 -2 -3 -3 -3 -4 -5 -6 -6 -7 -8 -8 -8 -8 -8 -8 -8 -8 -9 -9 -8 -8 -8 -9 -9 -10 -10 -10 -10 -11 -11 -11
3 2 1 -0 -1 -1 -1 -1 -1 -1 -2 -2 -3 -3 -4 -5 -5 -6 -6 -7 -8 -8 -9 -9 -9 -9 -9 -9 -9 -9 -9 -9 -9 -9 -9 -10 -10 -11 -11 -11 -11 -11 -11
2 1 -0 -1 -1 -2 -2 -2 -2 -2 -3 -3 -4 -4 -4 -5 -6 -7 -7 -8 -9 -10 -9 -9 -10 -10 -10 -9 -9 -9 -9 -9 -9 -10 -10 -11 -11 -11 -11 -12 -12 -11 -11
Wind_Speed
8 7 8 8 10 12 13 13 13 11 9 8 9 10 10 10 10 10 13 13 12 12 10 8 9 10 9 10 11 11 13 12 13 14 14 15 15 15 12 10 14 16 16
10 9 10 11 12 13 14 15 15 14 12 10 9 9 9 9 9 9 11 13 13 12 10 10 8 9 9 10 11 12 11 11 13 13 15 12 15 14 14 16 15 17 16
12 11 11 12 12 13 13 14 16 14 12 12 10 9 9 8 8 8 8 10 11 11 10 9 9 9 9 9 11 11 11 11 12 12 11 11 12 16 15 17 15 15 14
13 12 12 12 12 12 12 15 15 14 12 10 9 10 8 8 8 7 7 7 10 11 11 10 9 9 8 9 10 11 10 11 11 11 11 13 16 17 16 13 16 17 17
14 13 12 12 11 10 11 12 14 13 12 11 10 10 9 8 6 6 6 7 7 8 10 9 8 9 8 9 10 10 10 9 11 11 12 13 13 16 17 18 16 16 16
14 13 12 11 10 10 10 11 12 12 11 11 11 11 10 8 7 7 7 6 6 6 9 10 9 9 9 9 10 10 10 10 11 11 11 12 13 14 16 18 18 18 17
15 14 13 11 10 10 9 9 11 11 10 11 10 10 9 8 7 7 7 7 7 7 9 9 9 8 9 10 10 10 10 10 11 11 12 12 13 14 15 17 18 19 18
16 15 14 12 10 9 9 9 9 10 9 9 9 8 8 6 6 7 6 6 6 6 7 8 8 9 10 10 10 9 10 10 11 13 14 12 14 14 15 16 17 18 19
16 15 14 12 11 10 8 8 8 8 8 8 7 7 7 6 5 5 5 5 5 5 7 9 10 10 10 11 11 10 11 11 12 13 14 13 14 14 15 15 16 17 19
16 15 13 12 10 9 8 7 7 8 7 7 6 6 6 5 5 5 5 5 5 7 8 9 10 10 11 11 11 10 11 12 13 13 16 16 15 15 16 16 16 16 17
17 15 13 12 11 10 9 8 7 7 6 6 5 5 4 4 4 4 5 5 6 7 8 10 10 11 12 12 12 13 13 14 15 16 17 18 18 16 16 16 16 16 16
16 15 14 13 11 10 9 8 7 6 5 5 4 4 3 3 3 4 5 6 7 8 9 10 11 12 12 13 14 14 15 16 17 18 18 19 17 19 18 16 17 17 18
16 14 14 13 12 11 9 8 7 6 5 4 3 3 3 4 4 6 6 7 8 9 10 10 12 13 13 14 14 15 17 17 18 18 19 19 20 20 18 19 19 17 17
15 15 14 13 12 11 9 8 7 6 4 3 2 2 3 4 5 6 7 7 8 10 11 11 12 13 14 14 14 16 18 18 18 18 18 19 19 20 20 19 20 19 20
14 15 15 14 13 11 9 8 7 5 4 3 1 1 2 4 5 6 8 9 9 10 11 12 13 13 13 13 15 17 18 19 19 19 18 18 20 23 21 19 20 21 20
13 14 14 14 13 11 10 8 7 5 4 2 1 1 3 5 6 8 9 10 11 11 12 13 14 14 13 16 19 19 18 18 18 18 19 19 20 21 25 28 29 28 25
10 12 13 12 12 11 10 9 7 5 3 2 1 3 4 6 8 9 10 11 12 13 14 15 15 16 16 18 20 21 18 17 17 18 19 18 17 21 21 25 29 28 27
7 8 10 11 10 10 9 8 6 4 3 1 1 3 5 7 9 10 11 11 12 13 14 15 16 16 16 18 20 21 17 17 17 18 19 20 21 21 25 25 23 21 22
4 6 9 11 11 10 9 7 5 3 1 1 2 4 6 8 10 11 12 13 13 14 15 15 16 16 16 18 19 20 16 16 18 19 19 21 21 28 32 26 24 24 22
6 8 10 11 10 9 8 6 4 2 1 2 3 5 7 9 11 12 13 13 14 15 15 15 15 15 15 16 18 20 15 17 17 18 19 23 26 30 34 28 25 23 23
8 9 10 9 9 8 6 4 3 1 1 2 4 6 7 9 11 12 12 14 14 15 15 15 14 13 14 15 19 21 16 16 18 17 18 18 27 32 38 34 23 24 26
9 9 8 8 7 6 5 4 2 0 2 3 5 7 9 9 10 12 13 13 14 15 15 15 14 11 13 16 18 22 22 22 20 19 18 19 31 36 35 26 26 31 26
7 7 7 8 7 5 3 3 2 1 3 4 6 8 10 10 10 11 13 13 13 13 14 13 14 13 13 14 19 22 26 28 22 19 23 29 33 30 24 26 29 24 16
7 8 8 8 6 5 4 3 2 1 3 6 8 9 10 11 11 11 11 12 12 13 13 14 15 15 15 14 15 16 19 23 21 18 22 27 27 22 22 21 19 15 16
7 8 8 8 7 6 4 3 2 1 4 7 9 9 10 11 12 12 11 12 12 13 15 15 15 16 16 18 24 23 21 20 21 22 18 16 16 16 16 16 16 16 16
8 8 8 7 7 6 4 2 0 2 5 8 8 9 10 11 11 12 13 13 14 18 20 21 19 17 21 26 29 31 32 32 31 21 16 16 15 16 17 17 17 17 17
Wind_Direction
91 78 72 77 79 75 72 70 71 79 94 100 101 97 92 84 75 65 58 52 46 39 31 20 12 3 356 351 343 337 331 329 330 321 317 306 299 299 302 321 307 294 289
111 92 85 82 80 77 75 75 71 69 74 81 84 92 91 82 75 66 54 46 41 34 27 16 6 358 349 348 346 344 337 332 334 330 327 320 316 316 330 310 300 297 288
127 113 98 88 83 76 74 76 77 76 79 89 97 100 92 80 66 53 47 40 37 32 23 14 4 0 356 352 348 347 340 334 333 337 329 327 321 317 312 307 302 311 309
130 120 110 98 88 83 80 79 79 77 73 76 83 82 77 70 55 46 40 36 32 27 18 12 7 3 0 357 351 350 343 339 336 336 332 322 318 317 319 315 316 308 311
137 130 119 108 101 93 87 85 83 77 74 73 74 78 77 72 56 40 33 27 25 23 17 10 9 8 5 359 351 347 344 344 339 336 330 323 321 320 315 310 311 306 303
148 138 129 122 113 104 96 92 89 82 77 76 74 75 74 66 53 36 25 17 16 17 17 9 11 8 2 353 346 343 340 340 336 330 324 321 318 312 308 303 303 303 303
163 154 146 140 129 117 107 101 99 95 89 84 79 76 73 64 49 32 21 13 11 11 8 3 2 358 353 348 342 336 332 332 329 323 317 314 310 308 304 303 303 303 305
171 163 153 148 142 130 120 116 110 105 99 93 86 77 67 58 47 34 21 16 8 358 353 352 352 351 349 345 338 327 326 326 322 318 311 308 306 304 302 302 304 303 303
173 165 159 157 149 138 128 125 123 115 106 99 91 79 68 58 48 34 26 14 1 347 345 349 349 346 341 335 329 324 324 321 317 312 306 303 301 302 302 304 303 301 302
172 167 165 159 149 138 132 131 125 118 112 102 93 85 71 55 41 29 24 9 353 347 342 341 338 333 328 326 324 318 318 314 310 305 302 300 300 305 303 300 301 300 297
174 171 168 159 151 146 145 141 136 132 122 108 98 87 71 50 36 24 12 355 346 341 333 331 326 321 321 323 321 319 315 311 307 305 303 302 302 301 303 302 296 296 296
173 171 167 161 159 158 156 152 148 142 126 111 93 72 55 37 23 10 3 347 341 334 326 318 314 316 321 324 321 317 314 310 308 307 306 304 304 301 300 297 299 298 298
171 171 171 172 170 167 165 159 153 144 129 109 83 55 25 14 5 360 350 340 333 322 315 315 318 321 322 319 315 316 313 310 308 307 307 306 305 302 303 304 302 301 302
175 177 180 180 175 173 169 161 154 147 136 116 96 49 10 357 350 344 335 327 320 315 317 321 320 318 315 313 317 317 312 310 308 309 307 306 305 305 307 304 303 306 304
179 185 186 183 178 174 168 161 155 153 154 157 141 32 338 337 337 330 326 321 316 314 318 317 315 314 312 313 319 315 312 311 310 309 310 308 307 303 302 303 304 304 301
182 187 187 184 179 175 169 163 161 164 176 180 172 330 325 327 327 324 321 314 313 315 317 316 315 313 311 313 314 314 311 311 311 312 311 310 307 308 310 306 303 302 304
176 183 185 182 176 172 165 166 165 167 176 185 312 322 323 321 319 315 310 313 317 318 317 317 315 312 310 313 315 317 313 310 312 312 311 311 311 315 308 306 306 308 300
168 178 176 171 166 158 158 155 156 163 172 202 310 322 317 311 309 310 315 321 321 319 317 315 313 309 308 314 319 321 314 313 312 312 311 311 312 310 310 312 310 305 310
140 161 162 159 155 156 155 154 156 161 185 283 319 315 309 307 310 317 324 323 319 315 314 313 311 310 312 319 321 319 317 316 316 315 313 312 309 309 319 321 313 312 313
126 137 142 148 152 151 154 162 162 158 233 307 316 309 305 306 314 322 321 317 314 311 312 309 312 313 314 319 320 319 320 318 317 313 312 310 312 316 319 319 314 313 315
131 139 145 150 150 151 157 156 151 169 301 311 310 305 307 315 320 318 316 314 312 311 311 312 315 316 315 317 322 323 323 319 314 311 311 314 320 321 322 320 315 313 315
146 151 152 149 148 150 155 155 172 194 295 305 307 311 318 319 314 311 311 312 312 313 316 319 319 318 319 320 321 321 319 316 312 311 313 318 322 324 321 320 321 321 321
162 163 162 157 155 150 154 184 175 250 298 310 315 317 315 312 311 309 309 311 315 319 320 320 318 320 322 321 321 320 317 315 315 314 315 320 324 322 318 321 324 323 317
181 178 177 175 170 165 177 195 193 259 308 317 317 313 310 311 310 309 310 314 319 320 319 316 316 316 316 319 320 317 314 315 315 314 319 322 321 321 323 323 321 317 312
189 184 187 187 182 178 188 191 197 302 315 311 303 303 308 308 310 311 314 311 309 309 308 309 310 310 311 312 313 314 314 314 315 324 322 321 324 321 321 320 318 316 314
183 184 187 183 175 181 193 192 248 304 294 295 303 309 308 310 313 314 313 308 304 303 302 303 302 304 304 306 311 313 313 316 324 324 320 321 319 318 319 319 318 315 313
Height
1487 1488 1488 1489 1489 1489 1489 1489 1489 1489 1489 1490 1491 1492 1493 1493 1493 1493 1493 1493 1492 1491 1490 1488 1486 1483 1480 1476 1473 1469 1464 1461 1456 1450 1444 1439 1435 1431 1427 1422 1420 1417 1412
1488 1488 1489 1490 1491 1491 1491 1491 1491 1491 1491 1492 1492 1494 1493 1493 1494 1494 1494 1494 1492 1491 1489 1487 1485 1481 1477 1473 1469 1465 1461 1458 1454 1450 1442 1434 1430 1427 1424 1419 1414 1410 1406
1488 1489 1491 1491 1492 1493 1493 1492 1492 1493 1494 1494 1495 1497 1496 1496 1496 1496 1495 1494 1492 1490 1488 1485 1481 1477 1474 1471 1467 1462 1458 1455 1452 1449 1445 1436 1427 1423 1420 1415 1410 1406 1401
1487 1490 1491 1492 1493 1494 1495 1494 1494 1495 1496 1497 1497 1498 1498 1497 1497 1496 1495 1494 1491 1489 1485 1482 1478 1475 1472 1468 1465 1461 1457 1454 1450 1446 1443 1439 1432 1424 1413 1410 1408 1402 1397
1487 1490 1491 1492 1494 1495 1496 1495 1496 1496 1497 1498 1499 1498 1498 1498 1498 1497 1495 1492 1489 1486 1483 1479 1475 1473 1470 1467 1464 1460 1456 1452 1449 1446 1441 1437 1431 1425 1417 1404 1401 1398 1393
1487 1489 1490 1493 1494 1495 1496 1496 1496 1497 1498 1499 1499 1498 1499 1498 1498 1497 1494 1491 1488 1485 1481 1478 1475 1471 1468 1465 1461 1458 1454 1451 1447 1443 1439 1435 1429 1423 1416 1405 1395 1389 1383
1486 1487 1489 1491 1494 1495 1496 1496 1497 1497 1498 1499 1499 1498 1498 1498 1497 1495 1493 1491 1488 1485 1481 1476 1472 1468 1465 1461 1458 1455 1451 1447 1443 1439 1435 1431 1426 1421 1413 1404 1392 1383 1375
1484 1486 1487 1490 1493 1495 1496 1496 1497 1496 1497 1498 1498 1498 1498 1497 1496 1494 1492 1489 1486 1482 1477 1472 1469 1465 1462 1459 1455 1451 1447 1443 1439 1434 1430 1426 1421 1415 1409 1402 1392 1379 1369
1482 1485 1486 1489 1492 1493 1495 1496 1496 1495 1496 1496 1496 1496 1496 1495 1493 1491 1489 1486 1482 1477 1473 1470 1466 1463 1459 1456 1452 1447 1443 1438 1434 1429 1425 1420 1414 1409 1403 1396 1390 1382 1369
1480 1483 1486 1488 1490 1492 1494 1495 1495 1495 1494 1494 1494 1494 1493 1492 1490 1488 1485 1482 1478 1474 1471 1467 1464 1459 1455 1451 1447 1442 1436 1432 1428 1424 1419 1413 1408 1402 1396 1390 1384 1377 1369
1478 1481 1485 1487 1489 1491 1492 1493 1493 1493 1493 1492 1492 1492 1491 1490 1487 1485 1481 1478 1474 1471 1467 1464 1460 1455 1451 1446 1441 1435 1431 1426 1422 1417 1412 1407 1402 1395 1389 1383 1377 1371 1364
1476 1480 1482 1484 1486 1488 1490 1491 1491 1491 1491 1491 1491 1490 1489 1486 1483 1481 1477 1474 1471 1468 1464 1459 1455 1451 1446 1441 1435 1430 1425 1420 1415 1410 1405 1399 1393 1387 1382 1376 1370 1364 1357
1473 1477 1480 1482 1484 1486 1487 1488 1488 1489 1489 1489 1488 1487 1485 1483 1480 1477 1474 1471 1468 1464 1460 1455 1451 1446 1441 1435 1429 1424 1418 1413 1408 1402 1397 1391 1386 1380 1375 1369 1363 1356 1350
1470 1474 1477 1479 1481 1483 1484 1485 1486 1487 1487 1486 1485 1484 1482 1480 1477 1473 1470 1467 1464 1460 1455 1451 1446 1441 1435 1429 1423 1417 1411 1405 1399 1394 1389 1384 1379 1373 1367 1361 1356 1349 1343
1467 1470 1473 1476 1477 1479 1481 1482 1483 1484 1484 1483 1482 1481 1478 1476 1473 1470 1467 1463 1459 1454 1450 1444 1439 1434 1428 1422 1416 1409 1403 1397 1391 1386 1382 1377 1372 1366 1360 1355 1349 1343 1336
1464 1466 1469 1471 1473 1476 1478 1479 1480 1481 1481 1480 1479 1477 1475 1472 1469 1467 1463 1458 1454 1449 1444 1438 1433 1427 1421 1416 1409 1402 1395 1389 1384 1379 1375 1370 1365 1359 1354 1348 1342 1337 1330
1462 1464 1466 1468 1470 1472 1474 1476 1477 1478 1478 1476 1475 1473 1470 1468 1466 1462 1458 1453 1448 1443 1437 1432 1426 1420 1414 1408 1400 1393 1387 1382 1378 1374 1369 1363 1358 1353 1347 1340 1334 1328 1322
1461 1463 1464 1466 1468 1470 1472 1474 1474 1475 1474 1473 1471 1469 1467 1465 1461 1457 1453 1448 1443 1437 1431 1424 1419 1413 1407 1400 1393 1386 1381 1377 1373 1369 1364 1358 1352 1347 1341 1333 1324 1317 1313
1460 1461 1462 1464 1465 1467 1469 1471 1472 1472 1471 1469 1468 1466 1464 1461 1457 1453 1448 1443 1437 1430 1424 1418 1412 1405 1399 1393 1386 1381 1377 1372 1368 1364 1359 1353 1347 1342 1335 1326 1317 1309 1302
1459 1459 1459 1461 1463 1465 1468 1469 1470 1469 1468 1466 1465 1463 1460 1457 1453 1448 1443 1437 1431 1424 1418 1411 1405 1399 1392 1387 1382 1379 1374 1369 1363 1358 1353 1348 1342 1335 1328 1320 1312 1301 1293
1456 1457 1458 1460 1462 1464 1466 1467 1467 1466 1465 1464 1462 1460 1457 1453 1449 1444 1439 1432 1426 1420 1413 1407 1400 1394 1389 1383 1379 1375 1371 1365 1358 1352 1346 1341 1335 1328 1321 1313 1305 1296 1288
1455 1456 1457 1459 1461 1462 1463 1464 1464 1464 1462 1460 1458 1456 1453 1449 1444 1439 1433 1427 1421 1414 1407 1400 1394 1389 1385 1380 1374 1371 1366 1361 1355 1348 1341 1334 1328 1321 1313 1305 1298 1290 1282
1454 1454 1456 1457 1459 1460 1461 1462 1461 1460 1459 1457 1455 1452 1449 1445 1440 1434 1427 1421 1414 1408 1401 1395 1390 1385 1380 1375 1371 1367 1361 1356 1350 1343 1336 1328 1321 1313 1306 1299 1292 1284 1276
1451 1452 1453 1455 1456 1457 1458 1458 1457 1456 1456 1454 1451 1448 1444 1439 1434 1428 1422 1416 1409 1403 1397 1392 1386 1381 1376 1371 1367 1362 1356 1350 1343 1336 1329 1323 1315 1309 1302 1294 1286 1279 1272
1448 1449 1450 1452 1453 1454 1454 1453 1453 1453 1452 1450 1447 1443 1439 1433 1428 1422 1416 1409 1404 1399 1394 1388 1383 1378 1372 1367 1363 1358 1351 1345 1338 1330 1323 1317 1310 1303 1296 1288 1281 1273 1266
1445 1446 1447 1449 1450 1450 1451 1451 1451 1450 1448 1445 1442 1438 1433 1428 1421 1415 1409 1403 1399 1393 1388 1383 1379 1374 1369 1363 1358 1352 1346 1339 1333 1326 1319 1312 1306 1299 1291 1283 1275 1268 1260